Regional Weather Roundup
Issued by NWS

Home | Current Version | Previous Version | Text Only | Print | Product List | Glossary On
Versions: 1 2 3 4 5 6 7 8 9 10 11 12 13 14 15 16 17 18 19 20 21 22 23 24 25 26 27 28 29 30 31 32 33 34 35 36 37 38 39 40 41 42 43 44 45 46 47 48 49 50
000
ASUS43 KLMK 201010
RWRKY
KENTUCKY REGIONAL WEATHER ROUNDUP
NATIONAL WEATHER SERVICE LOUISVILLE KY
500 AM EST TUE FEB 20 2018

NOTE "FAIR" INDICATES FEW OR NO CLOUDS BELOW 12,000 FEET
WITH NO SIGNIFICANT WEATHER AND/OR OBSTRUCTIONS TO VISIBILITY.

KYZ001>023-026-027-061>063-070>075-201100-
WESTERN AND SOUTH CENTRAL KENTUCKY

CITY           SKY/WX    TMP DP  RH WIND       PRES   REMARKS
PADUCAH        CLOUDY    69  59  70 S12G24    30.03R
HENDERSON      FAIR      67  59  75 S18G25    30.05R
OWENSBORO      FAIR      65  58  78 S20       30.05
HOPKINSVILLE   FAIR      68  57  68 S16G24    30.11R
BOWLING GREEN  FAIR      65  57  75 S12       30.15R
GLASGOW        FAIR      62  56  80 S9        30.17R
$$

KYZ024-025-028>034-038-045-046-053-201100-
NORTH CENTRAL KENTUCKY

CITY           SKY/WX    TMP DP  RH WIND       PRES   REMARKS
LOUISVILLE/SDF MOCLDY    68  57  68 S17G29    30.10S
LOUISVILLE/LOU FAIR      67  58  72 S15       30.11S
FORT KNOX      FAIR      65  56  73 S14       30.12R
$$

KYZ035>037-039>044-047>052-055>060-089>105-201100-
NORTHEAST KENTUCKY

CITY           SKY/WX    TMP DP  RH WIND       PRES   REMARKS
LEXINGTON      FAIR      64  55  72 S17G25    30.17R
COVINGTON      MOCLDY    61  57  87 S12       30.10S
FRANKFORT      FAIR      65  54  67 S12G23    30.13R
$$

KYZ054-064>069-076>088-106>120-201100-
SOUTHEAST KENTUCKY

CITY           SKY/WX    TMP DP  RH WIND       PRES   REMARKS
JACKSON        FAIR      63  53  70 S9        30.23R
LONDON         FAIR      62  54  74 S5        30.24R
SOMERSET       FAIR      63  54  72 MISG      30.24R
MIDDLESBORO    MOCLDY    54  54 100 S7        30.29R
MONTICELLO     NOT AVBL
$$




USA.gov is the U.S. government's official web portal to all federal, state and local government web resources and services.